Time,TemperatureF,DewpointF,PressureIn,WindDirection,WindDirectionDegrees,WindSpeedMPH,WindSpeedGustMPH,Humidity,HourlyPrecipIn,Conditions,Clouds,dailyrainin,SoftwareType,DateUTC
2013-06-03 00:00:00,61.2,52.5,29.51,NNW,338,3.0,4.0,73,0.00,,,0.00,meteohub,2013-06-03 05:00:00,
2013-06-03 00:05:00,61.2,52.5,29.51,North,0,3.0,4.0,73,0.00,,,0.00,meteohub,2013-06-03 05:05:00,
2013-06-03 00:10:00,61.0,52.3,29.51,North,0,3.0,4.0,73,0.00,,,0.00,meteohub,2013-06-03 05:10:00,
2013-06-03 00:15:00,61.0,52.3,29.51,NNE,22,3.0,3.0,73,0.00,,,0.00,meteohub,2013-06-03 05:15:00,
2013-06-03 00:21:00,60.8,51.8,29.51,NNE,22,3.0,3.0,72,0.00,,,0.00,meteohub,2013-06-03 05:21:00,
2013-06-03 00:26:00,60.6,52.0,29.51,NNE,22,3.0,3.0,73,0.00,,,0.00,meteohub,2013-06-03 05:26:00,
2013-06-03 00:31:00,60.6,52.0,29.51,North,-999,-999.0,3.0,73,0.00,,,0.00,meteohub,2013-06-03 05:31:00,
2013-06-03 00:36:00,60.4,51.8,29.51,North,-999,-999.0,3.0,73,0.00,,,0.00,meteohub,2013-06-03 05:36:00,
2013-06-03 00:41:00,60.3,51.6,29.51,North,-999,-999.0,3.0,73,0.00,,,0.00,meteohub,2013-06-03 05:41:00,
2013-06-03 00:47:00,60.3,52.0,29.54,North,-999,-999.0,-999.0,74,0.00,,,0.00,meteohub,2013-06-03 05:47:00,
2013-06-03 00:52:00,60.1,51.8,29.54,North,0,3.0,-999.0,74,0.00,,,0.00,meteohub,2013-06-03 05:52:00,
2013-06-03 00:57:00,60.3,52.0,29.54,North,0,3.0,3.0,74,0.00,,,0.00,meteohub,2013-06-03 05:57:00,
2013-06-03 01:02:00,60.3,52.3,29.51,North,0,3.0,3.0,75,0.00,,,0.00,meteohub,2013-06-03 06:02:00,
2013-06-03 01:07:00,60.1,52.2,29.51,North,0,3.0,3.0,75,0.00,,,0.00,meteohub,2013-06-03 06:07:00,
2013-06-03 01:12:00,60.1,52.2,29.51,NNE,22,4.0,4.0,75,0.00,,,0.00,meteohub,2013-06-03 06:12:00,
2013-06-03 01:17:00,60.1,52.2,29.51,NE,45,4.0,5.0,75,0.00,,,0.00,meteohub,2013-06-03 06:17:00,
2013-06-03 01:22:00,59.9,52.0,29.51,NNE,22,4.0,5.0,75,0.00,,,0.00,meteohub,2013-06-03 06:22:00,
2013-06-03 01:27:00,59.7,52.2,29.51,NNE,22,3.0,5.0,76,0.00,,,0.00,meteohub,2013-06-03 06:27:00,
2013-06-03 01:32:00,59.5,51.6,29.51,NNW,338,2.0,5.0,75,0.00,,,0.00,meteohub,2013-06-03 06:32:00,
2013-06-03 01:37:00,59.5,51.6,29.51,NNE,22,4.0,5.0,75,0.00,,,0.00,meteohub,2013-06-03 06:37:00,
2013-06-03 01:42:00,59.4,51.4,29.51,NNE,22,3.0,5.0,75,0.00,,,0.00,meteohub,2013-06-03 06:42:00,
2013-06-03 01:47:00,59.4,51.4,29.51,NNW,338,1.0,4.0,75,0.00,,,0.00,meteohub,2013-06-03 06:47:00,
2013-06-03 01:52:00,59.2,51.6,29.51,NNW,338,1.0,4.0,76,0.00,,,0.00,meteohub,2013-06-03 06:52:00,
2013-06-03 01:57:00,59.2,51.6,29.51,NNW,338,1.0,3.0,76,0.00,,,0.00,meteohub,2013-06-03 06:57:00,
2013-06-03 02:02:00,59.2,52.0,29.51,NNW,338,2.0,2.0,77,0.00,,,0.00,meteohub,2013-06-03 07:02:00,
2013-06-03 02:07:00,59.2,52.0,29.51,NNE,22,2.0,2.0,77,0.00,,,0.00,meteohub,2013-06-03 07:07:00,
2013-06-03 02:12:00,59.2,52.0,29.51,NE,45,2.0,3.0,77,0.00,,,0.00,meteohub,2013-06-03 07:12:00,
2013-06-03 02:17:00,59.2,52.0,29.51,NE,45,1.0,3.0,77,0.00,,,0.00,meteohub,2013-06-03 07:17:00,
2013-06-03 02:22:00,59.4,52.5,29.51,NE,45,2.0,3.0,78,0.00,,,0.00,meteohub,2013-06-03 07:22:00,
2013-06-03 02:27:00,59.4,52.9,29.51,NE,45,1.0,2.0,79,0.00,,,0.00,meteohub,2013-06-03 07:27:00,
2013-06-03 02:32:00,59.4,52.5,29.48,NE,45,1.0,2.0,78,0.00,,,0.00,meteohub,2013-06-03 07:32:00,
2013-06-03 02:37:00,59.4,52.5,29.48,NE,45,2.0,2.0,78,0.00,,,0.00,meteohub,2013-06-03 07:37:00,
2013-06-03 02:42:00,59.2,52.3,29.48,NE,45,1.0,2.0,78,0.00,,,0.00,meteohub,2013-06-03 07:42:00,
2013-06-03 02:47:00,59.2,52.7,29.48,WNW,292,2.0,2.0,79,0.00,,,0.00,meteohub,2013-06-03 07:47:00,
2013-06-03 02:52:00,59.2,52.7,29.48,WNW,292,0.0,2.0,79,0.00,,,0.00,meteohub,2013-06-03 07:52:00,
2013-06-03 02:57:00,59.2,52.7,29.48,WNW,292,0.0,2.0,79,0.00,,,0.00,meteohub,2013-06-03 07:57:00,
2013-06-03 03:02:00,59.0,52.5,29.48,WNW,292,1.0,2.0,79,0.00,,,0.00,meteohub,2013-06-03 08:02:00,
2013-06-03 03:07:00,59.0,52.5,29.48,WNW,292,1.0,2.0,79,0.00,,,0.00,meteohub,2013-06-03 08:07:00,
2013-06-03 03:12:00,58.8,52.3,29.48,NW,315,0.0,2.0,79,0.00,,,0.00,meteohub,2013-06-03 08:12:00,
2013-06-03 03:17:00,58.8,52.3,29.48,NNW,338,3.0,3.0,79,0.00,,,0.00,meteohub,2013-06-03 08:17:00,
2013-06-03 03:22:00,59.0,52.9,29.48,NNE,22,2.0,3.0,80,0.00,,,0.00,meteohub,2013-06-03 08:22:00,
2013-06-03 03:27:00,59.0,52.9,29.48,NW,315,2.0,3.0,80,0.00,,,0.00,meteohub,2013-06-03 08:27:00,
2013-06-03 03:32:00,59.0,52.9,29.48,West,270,0.0,3.0,80,0.00,,,0.00,meteohub,2013-06-03 08:32:00,
2013-06-03 03:37:00,59.2,53.1,29.48,NW,315,2.0,2.0,80,0.00,,,0.00,meteohub,2013-06-03 08:37:00,
2013-06-03 03:42:00,59.2,53.1,29.48,North,0,3.0,3.0,80,0.00,,,0.00,meteohub,2013-06-03 08:42:00,
2013-06-03 03:47:00,59.4,53.6,29.48,NNE,22,3.0,3.0,81,0.00,,,0.00,meteohub,2013-06-03 08:47:00,
2013-06-03 03:52:00,59.4,53.6,29.48,ENE,68,6.0,6.0,81,0.00,,,0.00,meteohub,2013-06-03 08:52:00,
2013-06-03 03:57:00,59.2,53.8,29.48,ENE,68,6.0,6.0,82,0.00,,,0.00,meteohub,2013-06-03 08:57:00,
2013-06-03 04:02:00,59.2,53.8,29.51,ENE,68,6.0,6.0,82,0.00,,,0.00,meteohub,2013-06-03 09:02:00,
2013-06-03 04:07:00,59.2,53.8,29.51,NE,45,4.0,6.0,82,0.00,,,0.00,meteohub,2013-06-03 09:07:00,
2013-06-03 04:12:00,59.0,53.2,29.51,NE,45,4.0,6.0,81,0.00,,,0.00,meteohub,2013-06-03 09:12:00,
2013-06-03 04:17:00,58.8,53.1,29.51,NNE,22,6.0,6.0,81,0.00,,,0.00,meteohub,2013-06-03 09:17:00,
2013-06-03 04:22:00,58.8,53.1,29.51,NNE,22,6.0,6.0,81,0.00,,,0.00,meteohub,2013-06-03 09:22:00,
2013-06-03 04:27:00,58.5,52.3,29.51,NNE,22,6.0,6.0,80,0.00,,,0.00,meteohub,2013-06-03 09:27:00,
2013-06-03 04:32:00,58.3,52.2,29.51,NNE,22,6.0,6.0,80,0.00,,,0.00,meteohub,2013-06-03 09:32:00,
2013-06-03 04:37:00,58.1,51.6,29.51,North,-999,-999.0,6.0,79,0.00,,,0.00,meteohub,2013-06-03 09:37:00,
2013-06-03 04:42:00,58.1,51.6,29.51,NNE,22,6.0,6.0,79,0.00,,,0.00,meteohub,2013-06-03 09:42:00,
2013-06-03 04:47:00,57.9,51.1,29.51,NNE,22,6.0,6.0,78,0.00,,,0.00,meteohub,2013-06-03 09:47:00,
2013-06-03 04:52:00,57.9,51.1,29.51,NNE,22,6.0,6.0,78,0.00,,,0.00,meteohub,2013-06-03 09:52:00,
2013-06-03 04:57:00,57.9,50.7,29.51,NNE,22,6.0,6.0,77,0.00,,,0.00,meteohub,2013-06-03 09:57:00,
2013-06-03 05:02:00,57.7,50.5,29.51,North,-999,-999.0,6.0,77,0.00,,,0.00,meteohub,2013-06-03 10:02:00,
2013-06-03 05:07:00,57.7,50.2,29.51,North,-999,-999.0,6.0,76,0.00,,,0.00,meteohub,2013-06-03 10:07:00,
2013-06-03 05:12:00,57.6,50.0,29.51,NNE,22,7.0,-999.0,76,0.00,,,0.00,meteohub,2013-06-03 10:12:00,
2013-06-03 05:17:00,57.6,50.0,29.51,NNE,22,7.0,7.0,76,0.00,,,0.00,meteohub,2013-06-03 10:17:00,
2013-06-03 05:22:00,57.6,50.0,29.48,NNE,22,4.0,7.0,76,0.00,,,0.00,meteohub,2013-06-03 10:22:00,
2013-06-03 05:27:00,57.6,50.0,29.48,NNE,22,4.0,7.0,76,0.00,,,0.00,meteohub,2013-06-03 10:27:00,
2013-06-03 05:32:00,57.6,50.0,29.51,NNE,22,4.0,7.0,76,0.00,,,0.00,meteohub,2013-06-03 10:32:00,
2013-06-03 05:37:00,57.6,50.0,29.51,NE,45,4.0,4.0,76,0.00,,,0.00,meteohub,2013-06-03 10:37:00,
2013-06-03 05:42:00,57.6,50.0,29.51,NNE,22,1.0,4.0,76,0.00,,,0.00,meteohub,2013-06-03 10:42:00,
2013-06-03 05:47:00,57.7,50.5,29.51,East,90,0.0,4.0,77,0.00,,,0.00,meteohub,2013-06-03 10:47:00,
2013-06-03 05:52:00,57.7,50.2,29.51,NNW,338,2.0,4.0,76,0.00,,,0.00,meteohub,2013-06-03 10:52:00,
2013-06-03 05:57:00,57.7,49.8,29.51,NNW,338,3.0,3.0,75,0.00,,,0.00,meteohub,2013-06-03 10:57:00,
2013-06-03 06:02:00,57.7,49.8,29.51,NNW,338,3.0,3.0,75,0.00,,,0.00,meteohub,2013-06-03 11:02:00,
2013-06-03 06:07:00,57.7,49.8,29.54,ENE,68,1.0,3.0,75,0.00,,,0.00,meteohub,2013-06-03 11:07:00,
2013-06-03 06:12:00,57.9,50.0,29.54,ENE,68,1.0,3.0,75,0.00,,,0.00,meteohub,2013-06-03 11:12:00,
2013-06-03 06:18:00,57.9,50.0,29.54,ENE,68,1.0,3.0,75,0.00,,,0.00,meteohub,2013-06-03 11:18:00,
2013-06-03 06:23:00,57.9,49.6,29.54,NE,45,3.0,3.0,74,0.00,,,0.00,meteohub,2013-06-03 11:23:00,
2013-06-03 06:28:00,58.1,49.8,29.54,ENE,68,3.0,3.0,74,0.00,,,0.00,meteohub,2013-06-03 11:28:00,
2013-06-03 06:33:00,58.1,49.8,29.54,ENE,68,0.0,3.0,74,0.00,,,0.00,meteohub,2013-06-03 11:33:00,
2013-06-03 06:39:00,58.1,49.8,29.54,NNE,22,4.0,4.0,74,0.00,,,0.00,meteohub,2013-06-03 11:39:00,
2013-06-03 06:44:00,58.3,50.0,29.54,North,0,4.0,4.0,74,0.00,,,0.00,meteohub,2013-06-03 11:44:00,
2013-06-03 06:49:00,58.5,50.2,29.54,North,0,4.0,4.0,74,0.00,,,0.00,meteohub,2013-06-03 11:49:00,
2013-06-03 06:54:00,58.5,50.2,29.54,NE,45,4.0,4.0,74,0.00,,,0.00,meteohub,2013-06-03 11:54:00,
2013-06-03 06:59:00,58.6,50.4,29.54,NE,45,4.0,4.0,74,0.00,,,0.00,meteohub,2013-06-03 11:59:00,
2013-06-03 07:04:00,58.6,50.4,29.54,NE,45,4.0,4.0,74,0.00,,,0.00,meteohub,2013-06-03 12:04:00,
2013-06-03 07:10:00,58.8,50.9,29.54,NE,45,3.0,4.0,75,0.00,,,0.00,meteohub,2013-06-03 12:10:00,
2013-06-03 07:15:00,59.0,51.1,29.54,NE,45,4.0,4.0,75,0.00,,,0.00,meteohub,2013-06-03 12:15:00,
2013-06-03 07:20:00,59.2,51.3,29.57,North,0,3.0,5.0,75,0.00,,,0.00,meteohub,2013-06-03 12:20:00,
2013-06-03 07:25:00,59.0,50.7,29.57,North,0,3.0,5.0,74,0.00,,,0.00,meteohub,2013-06-03 12:25:00,
2013-06-03 07:31:00,59.2,50.9,29.57,North,0,4.0,5.0,74,0.00,,,0.00,meteohub,2013-06-03 12:31:00,
2013-06-03 07:36:00,59.4,51.1,29.57,NNE,22,5.0,5.0,74,0.00,,,0.00,meteohub,2013-06-03 12:36:00,
2013-06-03 07:41:00,59.4,51.1,29.57,NNE,22,4.0,5.0,74,0.00,,,0.00,meteohub,2013-06-03 12:41:00,
2013-06-03 07:46:00,59.4,50.7,29.57,NNE,22,4.0,5.0,73,0.00,,,0.00,meteohub,2013-06-03 12:46:00,
2013-06-03 07:52:00,59.7,51.1,29.57,NE,45,4.0,4.0,73,0.00,,,0.00,meteohub,2013-06-03 12:52:00,
2013-06-03 07:57:00,59.7,50.7,29.57,ENE,68,3.0,5.0,72,0.00,,,0.00,meteohub,2013-06-03 12:57:00,
2013-06-03 08:02:00,59.9,50.9,29.54,NNW,338,4.0,5.0,72,0.00,,,0.00,meteohub,2013-06-03 13:02:00,
2013-06-03 08:07:00,60.1,50.7,29.54,NNE,22,3.0,5.0,71,0.00,,,0.00,meteohub,2013-06-03 13:07:00,
2013-06-03 08:12:00,60.1,50.7,29.54,North,0,3.0,5.0,71,0.00,,,0.00,meteohub,2013-06-03 13:12:00,
2013-06-03 08:17:00,60.1,50.4,29.57,East,90,4.0,5.0,70,0.00,,,0.00,meteohub,2013-06-03 13:17:00,
2013-06-03 08:22:00,60.3,50.4,29.57,ENE,68,4.0,5.0,70,0.00,,,0.00,meteohub,2013-06-03 13:22:00,
2013-06-03 08:27:00,60.4,50.5,29.57,NNE,22,6.0,6.0,70,0.00,,,0.00,meteohub,2013-06-03 13:27:00,
2013-06-03 08:32:00,60.4,50.2,29.57,NE,45,3.0,6.0,69,0.00,,,0.00,meteohub,2013-06-03 13:32:00,
2013-06-03 08:37:00,60.6,50.7,29.57,NE,45,3.0,6.0,70,0.00,,,0.00,meteohub,2013-06-03 13:37:00,
2013-06-03 08:42:00,60.6,49.6,29.57,North,0,4.0,6.0,67,0.00,,,0.00,meteohub,2013-06-03 13:42:00,
2013-06-03 08:47:00,60.8,50.2,29.57,North,0,4.0,4.0,68,0.00,,,0.00,meteohub,2013-06-03 13:47:00,
2013-06-03 08:52:00,60.8,49.8,29.57,North,0,3.0,4.0,67,0.00,,,0.00,meteohub,2013-06-03 13:52:00,
2013-06-03 08:57:00,61.0,50.0,29.57,North,0,3.0,5.0,67,0.00,,,0.00,meteohub,2013-06-03 13:57:00,
2013-06-03 09:02:00,60.8,49.8,29.57,ENE,68,2.0,5.0,67,0.00,,,0.00,meteohub,2013-06-03 14:02:00,
2013-06-03 09:07:00,60.8,49.8,29.57,ENE,68,2.0,4.0,67,0.00,,,0.00,meteohub,2013-06-03 14:07:00,
2013-06-03 09:12:00,61.2,50.5,29.57,ENE,68,2.0,4.0,68,0.00,,,0.00,meteohub,2013-06-03 14:12:00,
2013-06-03 09:17:00,61.0,50.0,29.57,ENE,68,2.0,4.0,67,0.00,,,0.00,meteohub,2013-06-03 14:17:00,
2013-06-03 09:22:00,61.2,50.2,29.57,North,-999,-999.0,2.0,67,0.00,,,0.00,meteohub,2013-06-03 14:22:00,
2013-06-03 09:27:00,61.3,49.5,29.57,North,-999,-999.0,2.0,65,0.00,,,0.00,meteohub,2013-06-03 14:27:00,
2013-06-03 09:32:00,61.5,49.6,29.57,NNE,22,4.0,4.0,65,0.00,,,0.00,meteohub,2013-06-03 14:32:00,
2013-06-03 09:38:00,61.7,49.5,29.57,NNE,22,4.0,4.0,64,0.00,,,0.00,meteohub,2013-06-03 14:38:00,
2013-06-03 09:43:00,61.7,49.5,29.57,NE,45,4.0,4.0,64,0.00,,,0.00,meteohub,2013-06-03 14:43:00,
2013-06-03 09:48:00,61.9,49.1,29.57,NE,45,5.0,5.0,63,0.00,,,0.00,meteohub,2013-06-03 14:48:00,
2013-06-03 09:53:00,62.1,49.3,29.57,NE,45,5.0,5.0,63,0.00,,,0.00,meteohub,2013-06-03 14:53:00,
2013-06-03 09:58:00,62.6,49.8,29.57,NNW,338,5.0,5.0,63,0.00,,,0.00,meteohub,2013-06-03 14:58:00,
2013-06-03 10:03:00,62.8,48.2,29.54,NNW,338,5.0,5.0,59,0.00,,,0.00,meteohub,2013-06-03 15:03:00,
2013-06-03 10:08:00,62.8,46.4,29.54,North,0,8.0,8.0,55,0.00,,,0.00,meteohub,2013-06-03 15:08:00,
2013-06-03 10:13:00,63.0,47.1,29.54,North,0,8.0,8.0,56,0.00,,,0.00,meteohub,2013-06-03 15:13:00,
2013-06-03 10:18:00,63.3,46.4,29.57,NNE,22,6.0,8.0,54,0.00,,,0.00,meteohub,2013-06-03 15:18:00,
2013-06-03 10:24:00,63.7,46.2,29.57,ENE,68,6.0,8.0,53,0.00,,,0.00,meteohub,2013-06-03 15:24:00,
2013-06-03 10:29:00,63.9,46.9,29.57,North,0,6.0,10.0,54,0.00,,,0.00,meteohub,2013-06-03 15:29:00,
2013-06-03 10:34:00,63.9,46.9,29.57,ENE,68,4.0,10.0,54,0.00,,,0.00,meteohub,2013-06-03 15:34:00,
2013-06-03 10:39:00,63.5,45.5,29.57,East,90,6.0,10.0,52,0.00,,,0.00,meteohub,2013-06-03 15:39:00,
2013-06-03 10:45:00,63.7,46.2,29.57,ENE,68,4.0,6.0,53,0.00,,,0.00,meteohub,2013-06-03 15:45:00,
2013-06-03 10:50:00,63.7,45.7,29.57,North,0,6.0,11.0,52,0.00,,,0.00,meteohub,2013-06-03 15:50:00,
2013-06-03 10:56:00,63.9,45.3,29.57,NNE,22,6.0,11.0,51,0.00,,,0.00,meteohub,2013-06-03 15:56:00,
2013-06-03 11:01:00,64.0,45.0,29.57,ENE,68,8.0,11.0,50,0.00,,,0.00,meteohub,2013-06-03 16:01:00,
2013-06-03 11:06:00,63.9,44.4,29.57,NE,45,5.0,9.0,49,0.00,,,0.00,meteohub,2013-06-03 16:06:00,
2013-06-03 11:11:00,64.8,45.7,29.57,ENE,68,6.0,9.0,50,0.00,,,0.00,meteohub,2013-06-03 16:11:00,
2013-06-03 11:16:00,65.1,45.0,29.57,NE,45,6.0,9.0,48,0.00,,,0.00,meteohub,2013-06-03 16:16:00,
2013-06-03 11:22:00,64.9,43.7,29.57,NE,45,5.0,9.0,46,0.00,,,0.00,meteohub,2013-06-03 16:22:00,
2013-06-03 11:27:00,64.9,43.2,29.57,East,90,4.0,6.0,45,0.00,,,0.00,meteohub,2013-06-03 16:27:00,
2013-06-03 11:32:00,65.5,44.2,29.57,NE,45,4.0,6.0,46,0.00,,,0.00,meteohub,2013-06-03 16:32:00,
2013-06-03 11:37:00,65.3,43.5,29.57,ENE,68,4.0,6.0,45,0.00,,,0.00,meteohub,2013-06-03 16:37:00,
2013-06-03 11:42:00,65.1,42.6,29.57,NE,45,9.0,9.0,44,0.00,,,0.00,meteohub,2013-06-03 16:42:00,
2013-06-03 11:47:00,65.3,42.3,29.57,East,90,6.0,10.0,43,0.00,,,0.00,meteohub,2013-06-03 16:47:00,
2013-06-03 11:52:00,65.8,44.4,29.57,ENE,68,3.0,10.0,46,0.00,,,0.00,meteohub,2013-06-03 16:52:00,
2013-06-03 11:57:00,65.8,43.3,29.57,NNE,22,9.0,10.0,44,0.00,,,0.00,meteohub,2013-06-03 16:57:00,
2013-06-03 12:02:00,65.5,41.9,29.57,NNE,22,6.0,10.0,42,0.00,,,0.00,meteohub,2013-06-03 17:02:00,
2013-06-03 12:07:00,65.8,43.3,29.57,North,0,6.0,10.0,44,0.00,,,0.00,meteohub,2013-06-03 17:07:00,
2013-06-03 12:12:00,65.7,42.6,29.57,NNE,22,4.0,10.0,43,0.00,,,0.00,meteohub,2013-06-03 17:12:00,
2013-06-03 12:17:00,66.0,42.3,29.57,NNE,22,6.0,10.0,42,0.00,,,0.00,meteohub,2013-06-03 17:17:00,
2013-06-03 12:22:00,66.0,43.0,29.57,NNE,22,4.0,10.0,43,0.00,,,0.00,meteohub,2013-06-03 17:22:00,
2013-06-03 12:27:00,66.2,43.0,29.57,North,0,8.0,8.0,43,0.00,,,0.00,meteohub,2013-06-03 17:27:00,
2013-06-03 12:32:00,66.0,43.0,29.57,NE,45,9.0,9.0,43,0.00,,,0.00,meteohub,2013-06-03 17:32:00,
2013-06-03 12:37:00,65.8,42.8,29.57,NE,45,5.0,10.0,43,0.00,,,0.00,meteohub,2013-06-03 17:37:00,
2013-06-03 12:42:00,66.2,43.7,29.57,NNE,22,2.0,10.0,44,0.00,,,0.00,meteohub,2013-06-03 17:42:00,
2013-06-03 12:47:00,66.2,43.0,29.57,North,0,6.0,10.0,43,0.00,,,0.00,meteohub,2013-06-03 17:47:00,
2013-06-03 12:52:00,66.6,43.3,29.57,North,0,6.0,8.0,43,0.00,,,0.00,meteohub,2013-06-03 17:52:00,
2013-06-03 12:57:00,66.6,44.1,29.57,North,0,4.0,9.0,44,0.00,,,0.00,meteohub,2013-06-03 17:57:00,
2013-06-03 13:02:00,66.6,44.1,29.54,NE,45,3.0,9.0,44,0.00,,,0.00,meteohub,2013-06-03 18:02:00,
2013-06-03 13:07:00,66.9,45.0,29.54,ENE,68,5.0,9.0,45,0.00,,,0.00,meteohub,2013-06-03 18:07:00,
2013-06-03 13:12:00,66.0,44.1,29.54,East,90,6.0,6.0,45,0.00,,,0.00,meteohub,2013-06-03 18:12:00,
2013-06-03 13:17:00,66.0,44.1,29.51,ENE,68,4.0,8.0,45,0.00,,,0.00,meteohub,2013-06-03 18:17:00,
2013-06-03 13:22:00,66.2,43.7,29.51,NE,45,5.0,8.0,44,0.00,,,0.00,meteohub,2013-06-03 18:22:00,
2013-06-03 13:27:00,66.4,43.9,29.51,East,90,3.0,8.0,44,0.00,,,0.00,meteohub,2013-06-03 18:27:00,
2013-06-03 13:32:00,66.7,43.5,29.51,NNW,338,4.0,8.0,43,0.00,,,0.00,meteohub,2013-06-03 18:32:00,
2013-06-03 13:37:00,67.3,44.1,29.51,SE,135,2.0,8.0,43,0.00,,,0.00,meteohub,2013-06-03 18:37:00,
2013-06-03 13:42:00,67.5,44.2,29.51,NE,45,4.0,8.0,43,0.00,,,0.00,meteohub,2013-06-03 18:42:00,
2013-06-03 13:47:00,67.5,44.2,29.51,NNW,338,3.0,7.0,43,0.00,,,0.00,meteohub,2013-06-03 18:47:00,
2013-06-03 13:52:00,66.9,43.7,29.51,NE,45,7.0,7.0,43,0.00,,,0.00,meteohub,2013-06-03 18:52:00,
2013-06-03 13:57:00,66.7,43.5,29.51,NNE,22,6.0,8.0,43,0.00,,,0.00,meteohub,2013-06-03 18:57:00,
2013-06-03 14:02:00,66.6,43.3,29.51,NNE,22,2.0,8.0,43,0.00,,,0.00,meteohub,2013-06-03 19:02:00,
2013-06-03 14:07:00,66.7,44.2,29.51,North,0,6.0,8.0,44,0.00,,,0.00,meteohub,2013-06-03 19:07:00,
2013-06-03 14:12:00,66.7,43.5,29.51,North,0,3.0,8.0,43,0.00,,,0.00,meteohub,2013-06-03 19:12:00,
2013-06-03 14:17:00,66.7,44.2,29.51,NNE,22,2.0,8.0,44,0.00,,,0.00,meteohub,2013-06-03 19:17:00,
2013-06-03 14:22:00,66.9,43.7,29.51,WSW,248,3.0,8.0,43,0.00,,,0.00,meteohub,2013-06-03 19:22:00,
2013-06-03 14:27:00,67.5,44.8,29.51,East,90,2.0,7.0,44,0.00,,,0.00,meteohub,2013-06-03 19:27:00,
2013-06-03 14:32:00,68.9,45.5,29.48,NNE,22,5.0,6.0,43,0.00,,,0.00,meteohub,2013-06-03 19:32:00,
2013-06-03 14:37:00,69.1,45.7,29.48,North,0,2.0,6.0,43,0.00,,,0.00,meteohub,2013-06-03 19:37:00,
2013-06-03 14:43:00,68.4,44.4,29.48,NE,45,7.0,7.0,42,0.00,,,0.00,meteohub,2013-06-03 19:43:00,
2013-06-03 14:48:00,67.3,43.3,29.48,NNE,22,6.0,7.0,42,0.00,,,0.00,meteohub,2013-06-03 19:48:00,
2013-06-03 14:53:00,67.3,43.3,29.48,East,90,3.0,7.0,42,0.00,,,0.00,meteohub,2013-06-03 19:53:00,
2013-06-03 14:58:00,67.5,44.2,29.48,North,0,7.0,7.0,43,0.00,,,0.00,meteohub,2013-06-03 19:58:00,
2013-06-03 15:03:00,67.5,43.5,29.51,NE,45,4.0,7.0,42,0.00,,,0.00,meteohub,2013-06-03 20:03:00,
2013-06-03 15:08:00,67.3,43.3,29.51,North,0,4.0,7.0,42,0.00,,,0.00,meteohub,2013-06-03 20:08:00,
2013-06-03 15:14:00,68.2,44.8,29.51,SSW,202,1.0,7.0,43,0.00,,,0.00,meteohub,2013-06-03 20:14:00,
2013-06-03 15:19:00,68.9,44.2,29.51,ENE,68,5.0,6.0,41,0.00,,,0.00,meteohub,2013-06-03 20:19:00,
2013-06-03 15:24:00,68.2,43.0,29.51,NE,45,6.0,6.0,40,0.00,,,0.00,meteohub,2013-06-03 20:24:00,
2013-06-03 15:29:00,67.5,43.0,29.51,NNW,338,3.0,6.0,41,0.00,,,0.00,meteohub,2013-06-03 20:29:00,
2013-06-03 15:34:00,67.6,43.2,29.51,ENE,68,3.0,7.0,41,0.00,,,0.00,meteohub,2013-06-03 20:34:00,
2013-06-03 15:40:00,67.6,43.7,29.51,East,90,1.0,7.0,42,0.00,,,0.00,meteohub,2013-06-03 20:40:00,
2013-06-03 15:45:00,68.4,43.7,29.51,NE,45,5.0,5.0,41,0.00,,,0.00,meteohub,2013-06-03 20:45:00,
2013-06-03 15:50:00,68.4,43.2,29.51,East,90,3.0,5.0,40,0.00,,,0.00,meteohub,2013-06-03 20:50:00,
2013-06-03 15:55:00,69.1,43.7,29.51,SSE,158,3.0,5.0,40,0.00,,,0.00,meteohub,2013-06-03 20:55:00,
2013-06-03 16:00:00,69.4,44.8,29.51,ENE,68,3.0,5.0,41,0.00,,,0.00,meteohub,2013-06-03 21:00:00,
2013-06-03 16:05:00,69.6,43.5,29.51,NE,45,6.0,6.0,39,0.00,,,0.00,meteohub,2013-06-03 21:05:00,
2013-06-03 16:11:00,68.5,41.9,29.51,North,0,5.0,6.0,38,0.00,,,0.00,meteohub,2013-06-03 21:11:00,
2013-06-03 16:16:00,67.8,41.9,29.51,North,0,2.0,6.0,39,0.00,,,0.00,meteohub,2013-06-03 21:16:00,
2013-06-03 16:21:00,67.6,41.9,29.51,NNE,22,0.0,6.0,39,0.00,,,0.00,meteohub,2013-06-03 21:21:00,
2013-06-03 16:26:00,68.0,42.1,29.51,North,0,4.0,5.0,39,0.00,,,0.00,meteohub,2013-06-03 21:26:00,
2013-06-03 16:31:00,68.4,42.4,29.51,North,0,6.0,6.0,39,0.00,,,0.00,meteohub,2013-06-03 21:31:00,
2013-06-03 16:36:00,68.0,41.5,29.51,NE,45,6.0,6.0,38,0.00,,,0.00,meteohub,2013-06-03 21:36:00,
2013-06-03 16:41:00,68.0,42.1,29.51,NNE,22,7.0,7.0,39,0.00,,,0.00,meteohub,2013-06-03 21:41:00,
2013-06-03 16:46:00,68.0,41.5,29.51,WNW,292,4.0,9.0,38,0.00,,,0.00,meteohub,2013-06-03 21:46:00,
2013-06-03 16:51:00,68.0,41.5,29.51,NNE,22,4.0,9.0,38,0.00,,,0.00,meteohub,2013-06-03 21:51:00,
2013-06-03 16:56:00,67.6,41.9,29.51,South,180,1.0,9.0,39,0.00,,,0.00,meteohub,2013-06-03 21:56:00,
2013-06-03 17:02:00,67.8,43.3,29.51,NW,315,3.0,6.0,41,0.00,,,0.00,meteohub,2013-06-03 22:02:00,
2013-06-03 17:07:00,67.6,42.4,29.51,NNW,338,3.0,7.0,40,0.00,,,0.00,meteohub,2013-06-03 22:07:00,
2013-06-03 17:12:00,68.0,42.1,29.51,North,0,2.0,7.0,39,0.00,,,0.00,meteohub,2013-06-03 22:12:00,
2013-06-03 17:17:00,67.5,41.7,29.51,West,270,3.0,7.0,39,0.00,,,0.00,meteohub,2013-06-03 22:17:00,
2013-06-03 17:22:00,67.6,43.7,29.51,SW,225,2.0,6.0,42,0.00,,,0.00,meteohub,2013-06-03 22:22:00,
2013-06-03 17:27:00,67.6,43.2,29.51,NNW,338,3.0,6.0,41,0.00,,,0.00,meteohub,2013-06-03 22:27:00,
2013-06-03 17:32:00,67.6,43.2,29.48,NE,45,6.0,6.0,41,0.00,,,0.00,meteohub,2013-06-03 22:32:00,
2013-06-03 17:37:00,67.5,43.0,29.48,NNW,338,3.0,6.0,41,0.00,,,0.00,meteohub,2013-06-03 22:37:00,
2013-06-03 17:42:00,67.5,43.0,29.48,NW,315,5.0,6.0,41,0.00,,,0.00,meteohub,2013-06-03 22:42:00,
2013-06-03 17:47:00,67.5,43.5,29.48,North,0,4.0,6.0,42,0.00,,,0.00,meteohub,2013-06-03 22:47:00,
2013-06-03 17:52:00,67.3,42.8,29.48,NW,315,6.0,6.0,41,0.00,,,0.00,meteohub,2013-06-03 22:52:00,
2013-06-03 17:57:00,67.5,43.5,29.48,West,270,4.0,6.0,42,0.00,,,0.00,meteohub,2013-06-03 22:57:00,
2013-06-03 18:02:00,67.6,44.4,29.51,NW,315,4.0,6.0,43,0.00,,,0.00,meteohub,2013-06-03 23:02:00,
2013-06-03 18:07:00,67.3,42.8,29.51,NNE,22,4.0,6.0,41,0.00,,,0.00,meteohub,2013-06-03 23:07:00,
2013-06-03 18:12:00,66.9,43.2,29.51,NW,315,3.0,6.0,42,0.00,,,0.00,meteohub,2013-06-03 23:12:00,
2013-06-03 18:18:00,66.7,42.3,29.48,NNW,338,3.0,5.0,41,0.00,,,0.00,meteohub,2013-06-03 23:18:00,
2013-06-03 18:23:00,66.6,42.1,29.48,NNW,338,5.0,5.0,41,0.00,,,0.00,meteohub,2013-06-03 23:23:00,
2013-06-03 18:28:00,66.6,42.8,29.48,North,0,4.0,6.0,42,0.00,,,0.00,meteohub,2013-06-03 23:28:00,
2013-06-03 18:33:00,66.7,43.5,29.51,NE,45,3.0,6.0,43,0.00,,,0.00,meteohub,2013-06-03 23:33:00,
2013-06-03 18:38:00,66.6,42.8,29.51,North,0,6.0,6.0,42,0.00,,,0.00,meteohub,2013-06-03 23:38:00,
2013-06-03 18:44:00,66.6,42.8,29.51,NNW,338,4.0,6.0,42,0.00,,,0.00,meteohub,2013-06-03 23:44:00,
2013-06-03 18:49:00,66.4,42.6,29.48,NNE,22,4.0,6.0,42,0.00,,,0.00,meteohub,2013-06-03 23:49:00,
2013-06-03 18:54:00,66.0,43.0,29.48,NNE,22,3.0,6.0,43,0.00,,,0.00,meteohub,2013-06-03 23:54:00,
2013-06-03 18:59:00,66.0,43.5,29.48,NE,45,3.0,6.0,44,0.00,,,0.00,meteohub,2013-06-03 23:59:00,
2013-06-03 19:05:00,66.2,43.0,29.48,NE,45,5.0,5.0,43,0.00,,,0.00,meteohub,2013-06-04 00:05:00,
2013-06-03 19:10:00,66.2,43.7,29.48,ENE,68,4.0,5.0,44,0.00,,,0.00,meteohub,2013-06-04 00:10:00,
2013-06-03 19:15:00,66.2,43.7,29.48,East,90,3.0,5.0,44,0.00,,,0.00,meteohub,2013-06-04 00:15:00,
2013-06-03 19:20:00,66.2,44.2,29.48,East,90,3.0,5.0,45,0.00,,,0.00,meteohub,2013-06-04 00:20:00,
2013-06-03 19:25:00,66.0,44.1,29.48,East,90,3.0,5.0,45,0.00,,,0.00,meteohub,2013-06-04 00:25:00,
2013-06-03 19:30:00,65.8,44.4,29.48,East,90,2.0,4.0,46,0.00,,,0.00,meteohub,2013-06-04 00:30:00,
2013-06-03 19:36:00,65.7,44.4,29.48,ENE,68,2.0,4.0,46,0.00,,,0.00,meteohub,2013-06-04 00:36:00,
2013-06-03 19:41:00,65.3,44.6,29.48,NNE,22,2.0,3.0,47,0.00,,,0.00,meteohub,2013-06-04 00:41:00,
2013-06-03 19:46:00,65.1,45.0,29.48,NE,45,4.0,4.0,48,0.00,,,0.00,meteohub,2013-06-04 00:46:00,
2013-06-03 19:51:00,65.1,44.4,29.48,NE,45,4.0,4.0,47,0.00,,,0.00,meteohub,2013-06-04 00:51:00,
2013-06-03 19:57:00,64.8,44.1,29.48,NE,45,4.0,4.0,47,0.00,,,0.00,meteohub,2013-06-04 00:57:00,
2013-06-03 20:02:00,64.4,44.2,29.48,ENE,68,2.0,4.0,48,0.00,,,0.00,meteohub,2013-06-04 01:02:00,
2013-06-03 20:07:00,64.2,44.6,29.48,ENE,68,2.0,4.0,49,0.00,,,0.00,meteohub,2013-06-04 01:07:00,
2013-06-03 20:12:00,63.9,45.3,29.48,NE,45,2.0,4.0,51,0.00,,,0.00,meteohub,2013-06-04 01:12:00,
2013-06-03 20:17:00,63.3,45.5,29.48,NE,45,2.0,3.0,52,0.00,,,0.00,meteohub,2013-06-04 01:17:00,
2013-06-03 20:22:00,63.0,46.0,29.48,East,90,0.0,3.0,54,0.00,,,0.00,meteohub,2013-06-04 01:22:00,
2013-06-03 20:27:00,62.4,46.0,29.48,East,90,0.0,2.0,55,0.00,,,0.00,meteohub,2013-06-04 01:27:00,
2013-06-03 20:32:00,62.2,45.3,29.51,East,90,0.0,2.0,54,0.00,,,0.00,meteohub,2013-06-04 01:32:00,
2013-06-03 20:37:00,61.9,46.0,29.51,East,90,0.0,2.0,56,0.00,,,0.00,meteohub,2013-06-04 01:37:00,
2013-06-03 20:43:00,61.7,45.9,29.51,East,90,0.0,2.0,56,0.00,,,0.00,meteohub,2013-06-04 01:43:00,
2013-06-03 20:48:00,61.3,46.4,29.51,East,90,0.0,0.0,58,0.00,,,0.00,meteohub,2013-06-04 01:48:00,
2013-06-03 20:53:00,61.2,46.2,29.51,ENE,68,2.0,2.0,58,0.00,,,0.00,meteohub,2013-06-04 01:53:00,
2013-06-03 20:58:00,60.8,46.4,29.51,ENE,68,2.0,2.0,59,0.00,,,0.00,meteohub,2013-06-04 01:58:00,
2013-06-03 21:03:00,60.6,46.8,29.51,NE,45,1.0,2.0,60,0.00,,,0.00,meteohub,2013-06-04 02:03:00,
2013-06-03 21:08:00,60.6,47.5,29.51,NE,45,0.0,3.0,62,0.00,,,0.00,meteohub,2013-06-04 02:08:00,
2013-06-03 21:14:00,60.3,48.0,29.51,NE,45,0.0,3.0,64,0.00,,,0.00,meteohub,2013-06-04 02:14:00,
2013-06-03 21:19:00,60.1,47.8,29.51,NE,45,0.0,2.0,64,0.00,,,0.00,meteohub,2013-06-04 02:19:00,
2013-06-03 21:24:00,59.7,47.5,29.51,NE,45,0.0,2.0,64,0.00,,,0.00,meteohub,2013-06-04 02:24:00,
2013-06-03 21:29:00,59.5,48.2,29.51,NE,45,0.0,2.0,66,0.00,,,0.00,meteohub,2013-06-04 02:29:00,
2013-06-03 21:34:00,59.4,48.0,29.48,NE,45,0.0,2.0,66,0.00,,,0.00,meteohub,2013-06-04 02:34:00,
2013-06-03 21:39:00,59.2,47.8,29.48,NE,45,0.0,2.0,66,0.00,,,0.00,meteohub,2013-06-04 02:39:00,
2013-06-03 21:45:00,59.2,48.2,29.48,NE,45,0.0,0.0,67,0.00,,,0.00,meteohub,2013-06-04 02:45:00,
2013-06-03 21:50:00,58.8,48.4,29.51,NE,45,0.0,0.0,68,0.00,,,0.00,meteohub,2013-06-04 02:50:00,
2013-06-03 21:55:00,58.8,48.4,29.51,NE,45,0.0,0.0,68,0.00,,,0.00,meteohub,2013-06-04 02:55:00,
2013-06-03 22:01:00,58.5,48.4,29.51,NE,45,0.0,0.0,69,0.00,,,0.00,meteohub,2013-06-04 03:01:00,
2013-06-03 22:06:00,58.5,48.4,29.51,NE,45,0.0,0.0,69,0.00,,,0.00,meteohub,2013-06-04 03:06:00,
2013-06-03 22:11:00,58.5,48.7,29.51,NE,45,0.0,0.0,70,0.00,,,0.00,meteohub,2013-06-04 03:11:00,
2013-06-03 22:16:00,58.1,48.4,29.51,NE,45,1.0,0.0,70,0.00,,,0.00,meteohub,2013-06-04 03:16:00,
2013-06-03 22:21:00,57.9,48.2,29.51,NE,45,2.0,2.0,70,0.00,,,0.00,meteohub,2013-06-04 03:21:00,
2013-06-03 22:26:00,57.9,48.9,29.51,NE,45,0.0,2.0,72,0.00,,,0.00,meteohub,2013-06-04 03:26:00,
2013-06-03 22:31:00,57.9,48.9,29.51,NE,45,0.0,2.0,72,0.00,,,0.00,meteohub,2013-06-04 03:31:00,
2013-06-03 22:36:00,57.7,48.4,29.51,NE,45,0.0,2.0,71,0.00,,,0.00,meteohub,2013-06-04 03:36:00,
2013-06-03 22:42:00,57.6,48.6,29.51,NE,45,1.0,1.0,72,0.00,,,0.00,meteohub,2013-06-04 03:42:00,
2013-06-03 22:47:00,57.4,48.7,29.51,NE,45,0.0,2.0,73,0.00,,,0.00,meteohub,2013-06-04 03:47:00,
2013-06-03 22:52:00,57.4,48.7,29.51,NE,45,0.0,2.0,73,0.00,,,0.00,meteohub,2013-06-04 03:52:00,
2013-06-03 22:57:00,57.2,48.6,29.51,NE,45,0.0,2.0,73,0.00,,,0.00,meteohub,2013-06-04 03:57:00,
2013-06-03 23:01:00,57.2,48.6,29.51,NE,45,0.0,0.0,73,0.00,,,0.00,meteohub,2013-06-04 04:01:00,
2013-06-03 23:02:00,57.2,48.6,29.51,NE,45,0.0,0.0,73,0.00,,,0.00,meteohub,2013-06-04 04:02:00,
2013-06-03 23:05:00,57.0,48.7,29.51,NE,45,0.0,0.0,74,0.00,,,0.00,meteohub,2013-06-04 04:05:00,
2013-06-03 23:10:00,56.8,49.1,29.51,NE,45,0.0,1.0,75,0.00,,,0.00,meteohub,2013-06-04 04:10:00,
2013-06-03 23:16:00,56.7,48.9,29.51,NE,45,0.0,1.0,75,0.00,,,0.00,meteohub,2013-06-04 04:16:00,
2013-06-03 23:21:00,56.7,48.9,29.51,NE,45,0.0,0.0,75,0.00,,,0.00,meteohub,2013-06-04 04:21:00,
2013-06-03 23:26:00,56.5,48.4,29.51,NE,45,0.0,0.0,74,0.00,,,0.00,meteohub,2013-06-04 04:26:00,
2013-06-03 23:31:00,56.5,48.7,29.51,NE,45,0.0,0.0,75,0.00,,,0.00,meteohub,2013-06-04 04:31:00,
2013-06-03 23:36:00,56.3,48.2,29.51,NE,45,1.0,1.0,74,0.00,,,0.00,meteohub,2013-06-04 04:36:00,
2013-06-03 23:41:00,56.3,48.9,29.51,NE,45,0.0,2.0,76,0.00,,,0.00,meteohub,2013-06-04 04:41:00,
2013-06-03 23:47:00,56.1,48.7,29.51,NE,45,0.0,2.0,76,0.00,,,0.00,meteohub,2013-06-04 04:47:00,
2013-06-03 23:52:00,55.9,48.6,29.51,NE,45,2.0,2.0,76,0.00,,,0.00,meteohub,2013-06-04 04:52:00,
2013-06-03 23:57:00,56.1,49.1,29.51,ENE,68,2.0,2.0,77,0.00,,,0.00,meteohub,2013-06-04 04:57:00,